When you browse on this site, cookies collect data to enhance your experience and personalize the content and advertising you see.
Visit our Privacy Policy to learn more. By continuing to use the site, you agree to this use of cookies and data.
EN

Hourly Weather Mutare

Today, 13 July, Monday

Time Temperature Precipitation Wind Pressure Humidity
00:00 +8°C° 0 mm 1 mps 655 mmHg 75%
01:00 +8°C° 0 mm 1 mps 655 mmHg 77%
02:00 +8°C° 0 mm 1 mps 654 mmHg 83%
03:00 +7°C° 0 mm 1 mps 654 mmHg 84%
04:00 +7°C° 0 mm 1 mps 654 mmHg 85%
05:00 +7°C° 0 mm 1 mps 654 mmHg 87%
06:00 +8°C° 0 mm 1 mps 654 mmHg 80%
07:00 +10°C° 0 mm 1 mps 655 mmHg 74%
08:00 +12°C° 0 mm 1 mps 656 mmHg 70%
09:00 +15°C° 0 mm 1 mps 656 mmHg 60%
10:00 +19°C° 0 mm 1 mps 657 mmHg 49%
11:00 +22°C° 0 mm 1 mps 657 mmHg 38%
12:00 +23°C° 0 mm 1 mps 657 mmHg 34%
13:00 +24°C° 0 mm 1 mps 656 mmHg 31%
14:00 +25°C° 0 mm 1 mps 656 mmHg 23%
15:00 +23°C° 0 mm 1 mps 655 mmHg 28%
16:00 +21°C° 0 mm 1 mps 654 mmHg 32%
17:00 +19°C° 0 mm 1 mps 653 mmHg 36%
18:00 +16°C° 0 mm 1 mps 653 mmHg 46%
19:00 +14°C° 0 mm 1 mps 653 mmHg 55%
20:00 +12°C° 0 mm 1 mps 653 mmHg 65%
21:00 +11°C° 0 mm 1 mps 653 mmHg 66%
22:00 +11°C° 0 mm 1 mps 653 mmHg 67%
23:00 +10°C° 0 mm 1 mps 653 mmHg 68%

Tomorrow, 14 July, Tuesday

Time Temperature Precipitation Wind Pressure Humidity
00:00 +10°C° 0 mm 1 mps 652 mmHg 67%
01:00 +10°C° 0 mm 1 mps 652 mmHg 66%
02:00 +10°C° 0 mm 1 mps 652 mmHg 64%
03:00 +10°C° 0 mm 1 mps 652 mmHg 66%
04:00 +9°C° 0 mm 1 mps 651 mmHg 67%
05:00 +9°C° 0 mm 1 mps 651 mmHg 69%
06:00 +11°C° 0 mm 1 mps 652 mmHg 63%
07:00 +13°C° 0 mm 1 mps 653 mmHg 57%
08:00 +15°C° 0 mm 1 mps 654 mmHg 51%
09:00 +19°C° 0 mm 1 mps 655 mmHg 40%
10:00 +21°C° 0 mm 2 mps 655 mmHg 30%
11:00 +25°C° 0 mm 2 mps 656 mmHg 19%
12:00 +26°C° 0 mm 2 mps 656 mmHg 17%
13:00 +26°C° 0 mm 2 mps 655 mmHg 15%
14:00 +27°C° 0 mm 2 mps 655 mmHg 13%
15:00 +25°C° 0 mm 2 mps 654 mmHg 16%
16:00 +23°C° 0 mm 2 mps 654 mmHg 18%
17:00 +21°C° 0 mm 1 mps 654 mmHg 21%
18:00 +19°C° 0 mm 1 mps 654 mmHg 23%
19:00 +16°C° 0 mm 1 mps 654 mmHg 26%
20:00 +13°C° 0 mm 0 mps 654 mmHg 28%
21:00 +12°C° 0 mm 0 mps 654 mmHg 32%
22:00 +12°C° 0 mm 0 mps 654 mmHg 35%
23:00 +11°C° 0 mm 0 mps 654 mmHg 38%

Day after tomorrow, 15 July, Wednesday

Time Temperature Precipitation Wind Pressure Humidity
00:00 +11°C° 0 mm 0 mps 654 mmHg 41%
01:00 +10°C° 0 mm 0 mps 654 mmHg 43%
02:00 +9°C° 0 mm 0 mps 654 mmHg 45%
03:00 +9°C° 0 mm 0 mps 654 mmHg 46%
04:00 +9°C° 0 mm 0 mps 655 mmHg 48%
05:00 +8°C° 0 mm 0 mps 655 mmHg 49%
06:00 +11°C° 0 mm 1 mps 656 mmHg 45%
07:00 +12°C° 0 mm 1 mps 658 mmHg 40%
08:00 +13°C° 0 mm 1 mps 659 mmHg 36%
09:00 +15°C° 0 mm 2 mps 660 mmHg 40%
10:00 +16°C° 0 mm 3 mps 661 mmHg 43%
11:00 +17°C° 0 mm 4 mps 661 mmHg 47%
12:00 +17°C° 0 mm 4 mps 661 mmHg 48%
13:00 +18°C° 0 mm 4 mps 661 mmHg 49%
14:00 +18°C° 0 mm 4 mps 661 mmHg 49%
15:00 +15°C° 0 mm 4 mps 660 mmHg 60%
16:00 +13°C° 0 mm 3 mps 660 mmHg 71%
17:00 +12°C° 0 mm 3 mps 660 mmHg 81%
18:00 +11°C° 0 mm 3 mps 660 mmHg 82%
19:00 +10°C° 0 mm 2 mps 660 mmHg 82%
20:00 +10°C° 0 mm 2 mps 661 mmHg 83%
21:00 +9°C° 0 mm 3 mps 661 mmHg 82%
22:00 +9°C° 0 mm 3 mps 661 mmHg 81%
23:00 +9°C° 0 mm 3 mps 661 mmHg 80%

16 July, Thursday

Time Temperature Precipitation Wind Pressure Humidity
00:00 +8°C° 0 mm 3 mps 661 mmHg 82%
01:00 +7°C° 0 mm 3 mps 660 mmHg 84%
02:00 +7°C° 0 mm 2 mps 660 mmHg 85%
03:00 +6°C° 0 mm 2 mps 660 mmHg 87%
04:00 +6°C° 0 mm 2 mps 660 mmHg 88%
05:00 +6°C° 0 mm 2 mps 660 mmHg 89%
06:00 +7°C° 0 mm 2 mps 661 mmHg 83%
07:00 +8°C° 0 mm 1 mps 661 mmHg 77%
08:00 +9°C° 0 mm 1 mps 662 mmHg 71%
09:00 +10°C° 0 mm 2 mps 662 mmHg 59%
10:00 +13°C° 0 mm 2 mps 662 mmHg 46%
11:00 +14°C° 0 mm 3 mps 663 mmHg 34%
12:00 +14°C° 0 mm 3 mps 662 mmHg 34%
13:00 +15°C° 0 mm 4 mps 662 mmHg 34%
14:00 +17°C° 0 mm 4 mps 661 mmHg 34%
15:00 +14°C° 0 mm 4 mps 661 mmHg 41%
16:00 +13°C° 0 mm 4 mps 660 mmHg 48%
17:00 +12°C° 0 mm 3 mps 660 mmHg 55%
18:00 +10°C° 0 mm 3 mps 660 mmHg 63%
19:00 +8°C° 0 mm 2 mps 660 mmHg 71%
20:00 +6°C° 0 mm 2 mps 660 mmHg 79%
21:00 +6°C° 0 mm 2 mps 660 mmHg 81%
22:00 +7°C° 0 mm 1 mps 659 mmHg 83%
23:00 +6°C° 0 mm 1 mps 659 mmHg 86%

17 July, Friday

Time Temperature Precipitation Wind Pressure Humidity
00:00 +6°C° 0 mm 1 mps 659 mmHg 87%
01:00 +5°C° 0 mm 1 mps 658 mmHg 89%
02:00 +4°C° 0 mm 0 mps 658 mmHg 91%
03:00 +4°C° 0 mm 0 mps 658 mmHg 90%
04:00 +5°C° 0 mm 1 mps 658 mmHg 89%
05:00 +5°C° 0 mm 1 mps 658 mmHg 88%
06:00 +6°C° 0 mm 1 mps 658 mmHg 82%
07:00 +8°C° 0 mm 1 mps 659 mmHg 76%
08:00 +9°C° 0 mm 1 mps 660 mmHg 70%
09:00 +11°C° 0 mm 1 mps 660 mmHg 62%
10:00 +13°C° 0 mm 2 mps 661 mmHg 55%
11:00 +14°C° 0 mm 3 mps 661 mmHg 47%
12:00 +14°C° 0 mm 3 mps 661 mmHg 45%
13:00 +15°C° 0 mm 4 mps 660 mmHg 44%
14:00 +16°C° 0 mm 5 mps 660 mmHg 43%
15:00 +14°C° 0 mm 4 mps 659 mmHg 50%
16:00 +13°C° 0 mm 4 mps 659 mmHg 58%
17:00 +12°C° 0 mm 3 mps 659 mmHg 65%
18:00 +10°C° 0 mm 2 mps 658 mmHg 73%
19:00 +8°C° 0 mm 2 mps 658 mmHg 82%
20:00 +8°C° 0 mm 1 mps 658 mmHg 90%
21:00 +8°C° 0 mm 1 mps 658 mmHg 90%
22:00 +8°C° 0 mm 1 mps 658 mmHg 90%
23:00 +8°C° 0 mm 1 mps 658 mmHg 90%

18 July, Saturday

Time Temperature Precipitation Wind Pressure Humidity
00:00 +7°C° 0 mm 1 mps 658 mmHg 90%
01:00 +7°C° 0 mm 1 mps 658 mmHg 91%
02:00 +7°C° 0 mm 1 mps 657 mmHg 91%
03:00 +7°C° 0 mm 1 mps 657 mmHg 92%
04:00 +6°C° 0 mm 1 mps 657 mmHg 93%
05:00 +5°C° 0 mm 0 mps 657 mmHg 94%
06:00 +7°C° 0 mm 1 mps 657 mmHg 87%
07:00 +9°C° 0 mm 1 mps 658 mmHg 81%
08:00 +10°C° 0 mm 1 mps 659 mmHg 75%
09:00 +12°C° 0 mm 1 mps 659 mmHg 68%
10:00 +14°C° 0 mm 2 mps 660 mmHg 61%
11:00 +14°C° 0 mm 3 mps 660 mmHg 54%
12:00 +16°C° 0 mm 3 mps 659 mmHg 53%
13:00 +16°C° 0 mm 3 mps 659 mmHg 52%
14:00 +17°C° 0 mm 3 mps 658 mmHg 51%
15:00 +16°C° 0 mm 3 mps 658 mmHg 54%
16:00 +15°C° 0 mm 2 mps 658 mmHg 58%
17:00 +14°C° 0 mm 2 mps 657 mmHg 61%
18:00 +12°C° 0 mm 2 mps 657 mmHg 71%
19:00 +11°C° 0 mm 1 mps 657 mmHg 80%
20:00 +9°C° 0 mm 1 mps 657 mmHg 90%
21:00 +9°C° 0 mm 1 mps 657 mmHg 91%
22:00 +8°C° 0 mm 1 mps 657 mmHg 92%
23:00 +8°C° 0 mm 1 mps 657 mmHg 93%
Show more